User: anonymous   Login
Location: Caltech
(34.1382°N, 118.1253°W)
Time: 22:23:38
(UTC-07:00)
Language:

Iridium 62 - Orbit

View from above orbital plane
View from above orbital plane
View from above satellite
View from above satellite

Ground track
Ground track

The orbit data is extracted from the following two-line orbital elements,

1 25285U 98021A   16211.18554331  .00000027  00000-0  26548-5 0  9992
2 25285  86.3971 358.9359 0002148  87.9126 272.2316 14.34213198958728
Epoch (UTC): 29 July 2016 04:27:10
Eccentricity: 0.0002148
inclination: 86.3971°
perigee height: 776 km
apogee height: 779 km
right ascension of ascending node: 358.9359°
argument of perigee: 87.9126°
revolutions per day: 14.34213198
mean anomaly at epoch: 272.2316°
orbit number at epoch: 95872

The dashed part of the orbit path shows where the satellite is in the earth's shadow,  

DLR